• în România
  • Lista ţărilor
  • Pe 7 zile
  • Temperatura apei
  • Hartă satelitară
  • Meteo pe hartă
  • Widget-uri
  • user-avatar
    Intrare

    Meteo pe oră la Canillo

    Astăzi, 19 Ianuarie, Joi

    Timp Temperatura Precipitaţii Vânt Presiune Umiditate
    00:00 -12°C° 0 mm 1 m/s 615 mmHg 70%
    01:00 -12°C° 0 mm 1 m/s 615 mmHg 69%
    02:00 -11°C° 0 mm 0 m/s 615 mmHg 69%
    03:00 -11°C° 0 mm 0 m/s 615 mmHg 69%
    04:00 -11°C° 0 mm 1 m/s 615 mmHg 69%
    05:00 -12°C° 0 mm 1 m/s 615 mmHg 69%
    06:00 -13°C° 0 mm 1 m/s 614 mmHg 71%
    07:00 -11°C° 0 mm 1 m/s 616 mmHg 67%
    08:00 -8°C° 0 mm 1 m/s 617 mmHg 63%
    09:00 -6°C° 0 mm 1 m/s 618 mmHg 60%
    10:00 -4°C° 0 mm 1 m/s 619 mmHg 60%
    11:00 -4°C° 0 mm 2 m/s 619 mmHg 60%
    12:00 -3°C° 0 mm 2 m/s 620 mmHg 61%
    13:00 -3°C° 0 mm 2 m/s 620 mmHg 63%
    14:00 -3°C° 0 mm 2 m/s 620 mmHg 66%
    15:00 -3°C° 0 mm 2 m/s 620 mmHg 68%
    16:00 -5°C° 0 mm 2 m/s 619 mmHg 74%
    17:00 -7°C° 0 mm 2 m/s 618 mmHg 81%
    18:00 -8°C° 0 mm 1 m/s 617 mmHg 87%
    19:00 -8°C° 0 mm 1 m/s 617 mmHg 87%
    20:00 -9°C° 0 mm 1 m/s 617 mmHg 87%
    21:00 -9°C° 0 mm 1 m/s 617 mmHg 88%
    22:00 -8°C° 0 mm 1 m/s 617 mmHg 87%
    23:00 -8°C° 0 mm 1 m/s 617 mmHg 87%

    Mâine, 20 Ianuarie, Vineri

    Timp Temperatura Precipitaţii Vânt Presiune Umiditate
    00:00 -9°C° 0 mm 2 m/s 618 mmHg 87%
    01:00 -9°C° 0 mm 2 m/s 617 mmHg 88%
    02:00 -9°C° 0 mm 2 m/s 617 mmHg 88%
    03:00 -10°C° 0 mm 2 m/s 617 mmHg 89%
    04:00 -10°C° 0,1 mm 2 m/s 616 mmHg 89%
    05:00 -10°C° 0,1 mm 2 m/s 616 mmHg 90%
    06:00 -10°C° 0,1 mm 2 m/s 616 mmHg 90%
    07:00 -8°C° 0,1 mm 2 m/s 617 mmHg 87%
    08:00 -7°C° 0,1 mm 2 m/s 618 mmHg 84%
    09:00 -5°C° 0,1 mm 2 m/s 619 mmHg 82%
    10:00 -4°C° 0,1 mm 2 m/s 619 mmHg 79%
    11:00 -4°C° 0,1 mm 3 m/s 620 mmHg 77%
    12:00 -2°C° 0,1 mm 3 m/s 620 mmHg 74%
    13:00 -2°C° 0,2 mm 3 m/s 620 mmHg 76%
    14:00 -2°C° 0,2 mm 3 m/s 619 mmHg 77%
    15:00 -2°C° 0,2 mm 3 m/s 619 mmHg 79%
    16:00 -4°C° 0,2 mm 2 m/s 618 mmHg 84%
    17:00 -6°C° 0,2 mm 2 m/s 617 mmHg 88%
    18:00 -7°C° 0,2 mm 2 m/s 617 mmHg 93%
    19:00 -7°C° 0,4 mm 2 m/s 617 mmHg 93%
    20:00 -6°C° 0,4 mm 1 m/s 617 mmHg 92%
    21:00 -6°C° 0,4 mm 1 m/s 617 mmHg 92%
    22:00 -6°C° 0,5 mm 1 m/s 617 mmHg 92%
    23:00 -6°C° 0,5 mm 1 m/s 617 mmHg 92%

    Poimâine, 21 Ianuarie, Sâmbătă

    Timp Temperatura Precipitaţii Vânt Presiune Umiditate
    00:00 -4°C° 0,5 mm 1 m/s 617 mmHg 92%
    01:00 -6°C° 0,4 mm 2 m/s 617 mmHg 92%
    02:00 -6°C° 0,4 mm 2 m/s 617 mmHg 92%
    03:00 -6°C° 0,4 mm 2 m/s 617 mmHg 92%
    04:00 -6°C° 0,4 mm 2 m/s 617 mmHg 91%
    05:00 -6°C° 0,4 mm 2 m/s 617 mmHg 91%
    06:00 -6°C° 0,4 mm 2 m/s 617 mmHg 90%
    07:00 -5°C° 0,1 mm 2 m/s 617 mmHg 88%
    08:00 -5°C° 0,1 mm 2 m/s 618 mmHg 86%
    09:00 -4°C° 0,1 mm 2 m/s 618 mmHg 83%
    10:00 -3°C° 0 mm 2 m/s 618 mmHg 81%
    11:00 -2°C° 0 mm 2 m/s 619 mmHg 78%
    12:00 -1°C° 0 mm 2 m/s 619 mmHg 75%
    13:00 -1°C° 0 mm 2 m/s 618 mmHg 77%
    14:00 -2°C° 0 mm 2 m/s 618 mmHg 79%
    15:00 -2°C° 0 mm 2 m/s 617 mmHg 81%
    16:00 -3°C° 0 mm 2 m/s 617 mmHg 84%
    17:00 -5°C° 0 mm 2 m/s 616 mmHg 87%
    18:00 -6°C° 0 mm 2 m/s 616 mmHg 91%
    19:00 -6°C° 0 mm 2 m/s 616 mmHg 89%
    20:00 -7°C° 0 mm 2 m/s 616 mmHg 88%
    21:00 -7°C° 0 mm 2 m/s 615 mmHg 86%
    22:00 -7°C° 0 mm 2 m/s 615 mmHg 84%
    23:00 -7°C° 0 mm 2 m/s 615 mmHg 82%

    22 Ianuarie, Duminică

    Timp Temperatura Precipitaţii Vânt Presiune Umiditate
    00:00 -7°C° 0 mm 2 m/s 615 mmHg 80%
    01:00 -6°C° 0,2 mm 2 m/s 615 mmHg 80%
    02:00 -6°C° 0,2 mm 2 m/s 615 mmHg 80%
    03:00 -6°C° 0,2 mm 2 m/s 615 mmHg 80%
    04:00 -6°C° 0,4 mm 2 m/s 615 mmHg 82%
    05:00 -6°C° 0,4 mm 2 m/s 615 mmHg 84%
    06:00 -6°C° 0,4 mm 2 m/s 615 mmHg 85%
    07:00 -6°C° 0,2 mm 2 m/s 615 mmHg 84%
    08:00 -5°C° 0,2 mm 2 m/s 616 mmHg 82%
    09:00 -4°C° 0,2 mm 2 m/s 616 mmHg 81%
    10:00 -3°C° 0,1 mm 2 m/s 617 mmHg 79%
    11:00 -2°C° 0,1 mm 2 m/s 617 mmHg 78%
    12:00 -1°C° 0,1 mm 2 m/s 617 mmHg 76%
    13:00 -1°C° 0,3 mm 2 m/s 617 mmHg 78%
    14:00 -2°C° 0,3 mm 2 m/s 617 mmHg 79%
    15:00 -2°C° 0,3 mm 2 m/s 617 mmHg 81%
    16:00 -1°C° 0,6 mm 1 m/s 616 mmHg 85%
    17:00 -2°C° 0,6 mm 1 m/s 616 mmHg 89%
    18:00 -3°C° 0,6 mm 1 m/s 616 mmHg 92%
    19:00 -3°C° 0,7 mm 1 m/s 616 mmHg 93%
    20:00 -5°C° 0,7 mm 2 m/s 616 mmHg 93%
    21:00 -5°C° 0,7 mm 2 m/s 616 mmHg 93%
    22:00 -5°C° 0,6 mm 2 m/s 616 mmHg 93%
    23:00 -5°C° 0,6 mm 2 m/s 616 mmHg 93%

    23 Ianuarie, Luni

    Timp Temperatura Precipitaţii Vânt Presiune Umiditate
    00:00 -6°C° 0,6 mm 2 m/s 616 mmHg 93%
    01:00 -5°C° 0,5 mm 2 m/s 615 mmHg 93%
    02:00 -5°C° 0,5 mm 2 m/s 615 mmHg 93%
    03:00 -5°C° 0,5 mm 2 m/s 615 mmHg 93%
    04:00 -6°C° 0,6 mm 2 m/s 615 mmHg 93%
    05:00 -6°C° 0,6 mm 2 m/s 615 mmHg 93%
    06:00 -6°C° 0,6 mm 2 m/s 615 mmHg 94%
    07:00 -5°C° 0,4 mm 2 m/s 616 mmHg 92%
    08:00 -5°C° 0,4 mm 2 m/s 616 mmHg 91%
    09:00 -4°C° 0,4 mm 2 m/s 617 mmHg 89%
    10:00 -3°C° 0,3 mm 2 m/s 617 mmHg 87%
    11:00 -3°C° 0,3 mm 2 m/s 617 mmHg 86%
    12:00 -2°C° 0,3 mm 2 m/s 617 mmHg 84%
    13:00 -2°C° 0,2 mm 2 m/s 617 mmHg 84%
    14:00 -2°C° 0,2 mm 2 m/s 617 mmHg 85%
    15:00 -2°C° 0,2 mm 2 m/s 616 mmHg 86%
    16:00 -3°C° 0,2 mm 2 m/s 616 mmHg 89%
    17:00 -4°C° 0,2 mm 2 m/s 616 mmHg 92%
    18:00 -5°C° 0,2 mm 2 m/s 616 mmHg 95%
    19:00 -5°C° 0 mm 2 m/s 616 mmHg 94%
    20:00 -6°C° 0 mm 2 m/s 616 mmHg 94%
    21:00 -6°C° 0 mm 2 m/s 616 mmHg 93%
    22:00 -6°C° 0 mm 2 m/s 615 mmHg 93%
    23:00 -6°C° 0 mm 2 m/s 615 mmHg 92%

    24 Ianuarie, Marţi

    Timp Temperatura Precipitaţii Vânt Presiune Umiditate
    00:00 -7°C° 0 mm 2 m/s 615 mmHg 92%
    01:00 -7°C° 0 mm 2 m/s 615 mmHg 91%
    02:00 -7°C° 0 mm 2 m/s 615 mmHg 91%
    03:00 -7°C° 0 mm 2 m/s 615 mmHg 91%
    04:00 -7°C° 0 mm 2 m/s 615 mmHg 90%
    05:00 -7°C° 0 mm 2 m/s 615 mmHg 89%
    06:00 -7°C° 0 mm 2 m/s 615 mmHg 89%
    07:00 -6°C° 0 mm 2 m/s 616 mmHg 86%
    08:00 -6°C° 0 mm 2 m/s 616 mmHg 83%
    09:00 -5°C° 0 mm 2 m/s 617 mmHg 80%
    10:00 -3°C° 0 mm 2 m/s 617 mmHg 78%
    11:00 -2°C° 0 mm 2 m/s 618 mmHg 76%
    12:00 -1°C° 0 mm 3 m/s 618 mmHg 74%
    13:00 -1°C° 0 mm 2 m/s 618 mmHg 75%
    14:00 -1°C° 0 mm 2 m/s 618 mmHg 76%
    15:00 -1°C° 0 mm 2 m/s 617 mmHg 77%
    16:00 -3°C° 0 mm 2 m/s 617 mmHg 81%
    17:00 -6°C° 0 mm 2 m/s 616 mmHg 85%
    18:00 -8°C° 0 mm 2 m/s 615 mmHg 89%
    19:00 -8°C° 0 mm 2 m/s 615 mmHg 87%
    20:00 -9°C° 0 mm 2 m/s 615 mmHg 84%
    21:00 -9°C° 0 mm 2 m/s 615 mmHg 81%
    22:00 -9°C° 0 mm 1 m/s 615 mmHg 79%
    23:00 -9°C° 0 mm 1 m/s 614 mmHg 77%
    Arată mai mult